Time,TemperatureF,DewpointF,PressureIn,WindDirection,WindDirectionDegrees,WindSpeedMPH,WindSpeedGustMPH,Humidity,HourlyPrecipIn,Conditions,Clouds,dailyrainin,SoftwareType,DateUTC
2013-03-26 00:00:00,37.1,31.2,29.48,NE,45,3.4,3.4,81,-99.99,,,-99.99,PWS SA v1.10,2013-03-26 04:00:00,
2013-03-26 00:05:00,36.9,31.6,29.48,North,0,0.0,5.0,81,-99.99,,,-99.99,PWS SA v1.10,2013-03-26 04:05:00,
2013-03-26 00:10:00,37.0,31.4,29.49,NE,49,1.7,5.0,81,-99.99,,,-99.99,PWS SA v1.10,2013-03-26 04:10:00,
2013-03-26 00:20:00,37.0,31.0,29.49,NE,41,1.7,3.0,80,-99.99,,,-99.99,PWS SA v1.10,2013-03-26 04:20:00,
2013-03-26 00:25:00,37.1,31.5,29.49,North,7,1.7,3.0,80,-99.99,,,-99.99,PWS SA v1.10,2013-03-26 04:25:00,
2013-03-26 00:35:00,37.2,30.9,29.49,NNE,24,3.4,6.0,79,-99.99,,,-99.99,PWS SA v1.10,2013-03-26 04:35:00,
2013-03-26 00:40:00,37.2,30.9,29.49,NNE,24,3.4,6.0,79,-99.99,,,-99.99,PWS SA v1.10,2013-03-26 04:40:00,
2013-03-26 00:45:00,37.0,31.1,29.49,NNE,20,1.7,3.0,79,-99.99,,,-99.99,PWS SA v1.10,2013-03-26 04:45:00,
2013-03-26 00:50:00,37.2,30.7,29.49,NE,34,1.7,3.0,79,-99.99,,,-99.99,PWS SA v1.10,2013-03-26 04:50:00,
2013-03-26 00:55:00,37.2,30.9,29.48,North,5,3.4,3.4,79,-99.99,,,-99.99,PWS SA v1.10,2013-03-26 04:55:00,
2013-03-26 01:00:00,37.4,30.8,29.49,ENE,73,1.7,5.0,78,-99.99,,,-99.99,PWS SA v1.10,2013-03-26 05:00:00,
2013-03-26 01:05:00,37.4,30.6,29.49,NNE,22,3.4,5.0,77,-99.99,,,-99.99,PWS SA v1.10,2013-03-26 05:05:00,
2013-03-26 01:10:00,37.5,30.8,29.50,NE,51,3.4,11.0,77,-99.99,,,-99.99,PWS SA v1.10,2013-03-26 05:10:00,
2013-03-26 01:15:00,37.5,30.5,29.50,NE,40,6.8,13.0,77,-99.99,,,-99.99,PWS SA v1.10,2013-03-26 05:15:00,
2013-03-26 01:25:00,37.5,30.6,29.49,North,363,1.7,13.0,76,-99.99,,,-99.99,PWS SA v1.10,2013-03-26 05:25:00,
2013-03-26 01:30:00,37.6,30.3,29.49,NNE,26,3.4,6.0,75,-99.99,,,-99.99,PWS SA v1.10,2013-03-26 05:30:00,
2013-03-26 01:35:00,37.5,30.7,29.49,NE,50,6.8,6.8,76,-99.99,,,-99.99,PWS SA v1.10,2013-03-26 05:35:00,
2013-03-26 01:40:00,37.5,30.1,29.49,ENE,74,1.7,6.0,75,-99.99,,,-99.99,PWS SA v1.10,2013-03-26 05:40:00,
2013-03-26 01:45:00,37.6,30.1,29.49,NE,54,1.7,6.0,74,-99.99,,,-99.99,PWS SA v1.10,2013-03-26 05:45:00,
2013-03-26 01:50:00,37.5,29.8,29.49,NNE,23,5.1,6.0,73,-99.99,,,-99.99,PWS SA v1.10,2013-03-26 05:50:00,
2013-03-26 01:55:00,37.5,29.8,29.49,North,0,0.0,6.0,73,-99.99,,,-99.99,PWS SA v1.10,2013-03-26 05:55:00,
2013-03-26 02:00:00,37.5,29.2,29.49,North,9,1.7,6.0,72,-99.99,,,-99.99,PWS SA v1.10,2013-03-26 06:00:00,
2013-03-26 02:05:00,37.3,29.1,29.50,North,0,0.0,5.0,72,-99.99,,,-99.99,PWS SA v1.10,2013-03-26 06:05:00,
2013-03-26 02:10:00,37.4,28.9,29.50,NNW,333,1.7,5.0,72,-99.99,,,-99.99,PWS SA v1.10,2013-03-26 06:10:00,
2013-03-26 02:15:00,37.4,29.0,29.49,NE,45,1.7,12.0,72,-99.99,,,-99.99,PWS SA v1.10,2013-03-26 06:15:00,
2013-03-26 02:20:00,37.3,28.9,29.49,NNE,14,5.1,12.0,71,-99.99,,,-99.99,PWS SA v1.10,2013-03-26 06:20:00,
2013-03-26 02:25:00,37.5,29.5,29.50,NNE,30,3.4,12.0,72,-99.99,,,-99.99,PWS SA v1.10,2013-03-26 06:25:00,
2013-03-26 02:30:00,37.4,29.6,29.50,NE,35,5.1,8.0,73,-99.99,,,-99.99,PWS SA v1.10,2013-03-26 06:30:00,
2013-03-26 02:35:00,37.4,29.4,29.50,North,0,0.0,8.0,72,-99.99,,,-99.99,PWS SA v1.10,2013-03-26 06:35:00,
2013-03-26 02:40:00,37.4,29.4,29.50,North,0,0.0,5.0,72,-99.99,,,-99.99,PWS SA v1.10,2013-03-26 06:40:00,
2013-03-26 02:45:00,37.4,29.4,29.50,NE,37,5.1,5.1,72,-99.99,,,-99.99,PWS SA v1.10,2013-03-26 06:45:00,
2013-03-26 02:50:00,37.4,29.2,29.50,NNE,28,3.4,5.0,71,-99.99,,,-99.99,PWS SA v1.10,2013-03-26 06:50:00,
2013-03-26 02:55:00,37.5,29.1,29.50,NE,38,3.4,5.0,71,-99.99,,,-99.99,PWS SA v1.10,2013-03-26 06:55:00,
2013-03-26 03:00:00,37.7,29.3,29.50,North,0,0.0,8.0,71,-99.99,,,-99.99,PWS SA v1.10,2013-03-26 07:00:00,
2013-03-26 03:05:00,37.5,29.6,29.50,North,4,1.7,8.0,72,-99.99,,,-99.99,PWS SA v1.10,2013-03-26 07:05:00,
2013-03-26 03:10:00,37.4,30.1,29.50,ESE,116,1.7,8.0,74,-99.99,,,-99.99,PWS SA v1.10,2013-03-26 07:10:00,
2013-03-26 03:15:00,37.2,30.0,29.51,North,0,0.0,5.0,74,-99.99,,,-99.99,PWS SA v1.10,2013-03-26 07:15:00,
2013-03-26 03:20:00,37.0,30.6,29.50,NE,35,1.7,5.0,76,-99.99,,,-99.99,PWS SA v1.10,2013-03-26 07:20:00,
2013-03-26 03:25:00,37.0,30.5,29.51,NNW,341,1.7,1.7,76,-99.99,,,-99.99,PWS SA v1.10,2013-03-26 07:25:00,
2013-03-26 03:30:00,37.1,30.7,29.50,North,0,0.0,1.0,76,-99.99,,,-99.99,PWS SA v1.10,2013-03-26 07:30:00,
2013-03-26 03:35:00,36.8,30.8,29.51,NE,35,1.7,1.7,77,-99.99,,,-99.99,PWS SA v1.10,2013-03-26 07:35:00,
2013-03-26 03:40:00,36.8,30.8,29.51,NE,35,1.7,1.7,77,-99.99,,,-99.99,PWS SA v1.10,2013-03-26 07:40:00,
2013-03-26 03:45:00,36.8,31.1,29.50,North,0,0.0,1.0,78,-99.99,,,-99.99,PWS SA v1.10,2013-03-26 07:45:00,
2013-03-26 03:50:00,36.7,30.5,29.51,NNE,32,1.7,1.7,77,-99.99,,,-99.99,PWS SA v1.10,2013-03-26 07:50:00,
2013-03-26 03:55:00,36.8,30.3,29.51,North,0,0.0,1.0,76,-99.99,,,-99.99,PWS SA v1.10,2013-03-26 07:55:00,
2013-03-26 04:05:00,36.9,29.6,29.51,North,0,0.0,3.0,74,-99.99,,,-99.99,PWS SA v1.10,2013-03-26 08:05:00,
2013-03-26 04:15:00,36.7,29.1,29.52,NNE,22,1.7,1.7,73,-99.99,,,-99.99,PWS SA v1.10,2013-03-26 08:15:00,
2013-03-26 04:20:00,36.7,29.0,29.51,North,0,0.0,3.0,72,-99.99,,,-99.99,PWS SA v1.10,2013-03-26 08:20:00,
2013-03-26 04:25:00,36.7,28.8,29.51,North,0,0.0,3.0,72,-99.99,,,-99.99,PWS SA v1.10,2013-03-26 08:25:00,
2013-03-26 04:30:00,36.1,28.9,29.51,North,0,0.0,3.0,74,-99.99,,,-99.99,PWS SA v1.10,2013-03-26 08:30:00,
2013-03-26 04:40:00,36.2,28.7,29.51,North,0,0.0,3.0,73,-99.99,,,-99.99,PWS SA v1.10,2013-03-26 08:40:00,
2013-03-26 04:50:00,36.1,29.0,29.52,NE,48,3.4,5.0,74,-99.99,,,-99.99,PWS SA v1.10,2013-03-26 08:50:00,
2013-03-26 04:55:00,36.1,28.7,29.52,North,0,0.0,5.0,74,-99.99,,,-99.99,PWS SA v1.10,2013-03-26 08:55:00,
2013-03-26 05:00:00,36.1,28.5,29.52,North,0,0.0,3.0,73,-99.99,,,-99.99,PWS SA v1.10,2013-03-26 09:00:00,
2013-03-26 05:05:00,35.8,28.8,29.52,North,0,0.0,3.0,74,-99.99,,,-99.99,PWS SA v1.10,2013-03-26 09:05:00,
2013-03-26 05:10:00,35.7,28.5,29.53,North,0,0.0,3.0,74,-99.99,,,-99.99,PWS SA v1.10,2013-03-26 09:10:00,
2013-03-26 05:15:00,35.8,29.2,29.53,North,0,0.0,3.0,76,-99.99,,,-99.99,PWS SA v1.10,2013-03-26 09:15:00,
2013-03-26 05:20:00,35.4,28.4,29.53,North,0,0.0,1.0,75,-99.99,,,-99.99,PWS SA v1.10,2013-03-26 09:20:00,
2013-03-26 05:25:00,35.4,28.4,29.53,NNW,338,1.7,1.7,75,-99.99,,,-99.99,PWS SA v1.10,2013-03-26 09:25:00,
2013-03-26 05:30:00,35.6,28.9,29.54,North,0,0.0,3.0,76,-99.99,,,-99.99,PWS SA v1.10,2013-03-26 09:30:00,
2013-03-26 05:35:00,35.6,28.6,29.54,North,0,0.0,3.0,75,-99.99,,,-99.99,PWS SA v1.10,2013-03-26 09:35:00,
2013-03-26 05:45:00,35.5,28.8,29.54,North,0,0.0,5.0,75,-99.99,,,-99.99,PWS SA v1.10,2013-03-26 09:45:00,
2013-03-26 05:50:00,35.7,28.7,29.54,North,0,0.0,5.0,75,-99.99,,,-99.99,PWS SA v1.10,2013-03-26 09:50:00,
2013-03-26 05:55:00,35.9,28.9,29.55,North,0,0.0,1.0,75,-99.99,,,-99.99,PWS SA v1.10,2013-03-26 09:55:00,
2013-03-26 06:00:00,35.7,28.7,29.55,North,0,0.0,1.0,75,-99.99,,,-99.99,PWS SA v1.10,2013-03-26 10:00:00,
2013-03-26 06:05:00,35.8,28.4,29.56,North,0,0.0,3.0,74,-99.99,,,-99.99,PWS SA v1.10,2013-03-26 10:05:00,
2013-03-26 06:10:00,36.1,29.1,29.55,NW,320,1.7,3.0,75,-99.99,,,-99.99,PWS SA v1.10,2013-03-26 10:10:00,
2013-03-26 06:15:00,35.8,28.8,29.56,NNW,332,1.7,3.0,74,-99.99,,,-99.99,PWS SA v1.10,2013-03-26 10:15:00,
2013-03-26 06:20:00,35.8,28.7,29.56,North,0,0.0,1.0,75,-99.99,,,-99.99,PWS SA v1.10,2013-03-26 10:20:00,
2013-03-26 06:25:00,35.9,28.9,29.56,North,350,1.7,1.7,76,-99.99,,,-99.99,PWS SA v1.10,2013-03-26 10:25:00,
2013-03-26 06:30:00,35.7,28.9,29.56,North,0,0.0,1.0,75,-99.99,,,-99.99,PWS SA v1.10,2013-03-26 10:30:00,
2013-03-26 06:35:00,35.9,28.6,29.56,North,0,0.0,5.0,74,-99.99,,,-99.99,PWS SA v1.10,2013-03-26 10:35:00,
2013-03-26 06:45:00,36.0,29.1,29.57,North,0,0.0,5.0,75,-99.99,,,-99.99,PWS SA v1.10,2013-03-26 10:45:00,
2013-03-26 06:50:00,35.9,28.9,29.57,NNE,25,5.1,5.1,75,-99.99,,,-99.99,PWS SA v1.10,2013-03-26 10:50:00,
2013-03-26 06:55:00,36.0,28.6,29.57,NNE,22,3.4,5.0,74,-99.99,,,-99.99,PWS SA v1.10,2013-03-26 10:55:00,
2013-03-26 07:00:00,36.2,29.0,29.57,NE,36,3.4,5.0,75,-99.99,,,-99.99,PWS SA v1.10,2013-03-26 11:00:00,
2013-03-26 07:05:00,36.2,28.5,29.57,NNE,14,1.7,5.0,72,-99.99,,,-99.99,PWS SA v1.10,2013-03-26 11:05:00,
2013-03-26 07:10:00,36.3,29.1,29.57,North,0,0.0,5.0,74,-99.99,,,-99.99,PWS SA v1.10,2013-03-26 11:10:00,
2013-03-26 07:15:00,36.4,28.6,29.58,NNE,23,1.7,3.0,73,-99.99,,,-99.99,PWS SA v1.10,2013-03-26 11:15:00,
2013-03-26 07:25:00,36.6,28.6,29.58,North,0,0.0,3.0,72,-99.99,,,-99.99,PWS SA v1.10,2013-03-26 11:25:00,
2013-03-26 07:30:00,36.7,28.9,29.59,North,0,0.0,3.0,73,-99.99,,,-99.99,PWS SA v1.10,2013-03-26 11:30:00,
2013-03-26 07:35:00,36.8,28.5,29.59,NNE,32,1.7,3.0,71,-99.99,,,-99.99,PWS SA v1.10,2013-03-26 11:35:00,
2013-03-26 07:45:00,36.9,28.8,29.59,North,0,0.0,3.0,72,-99.99,,,-99.99,PWS SA v1.10,2013-03-26 11:45:00,
2013-03-26 07:50:00,37.0,28.6,29.59,North,0,0.0,0.0,71,-99.99,,,-99.99,PWS SA v1.10,2013-03-26 11:50:00,
2013-03-26 07:55:00,37.2,28.4,29.60,North,0,0.0,1.0,70,-99.99,,,-99.99,PWS SA v1.10,2013-03-26 11:55:00,
2013-03-26 08:00:00,37.3,27.8,29.59,North,0,0.0,6.0,68,-99.99,,,-99.99,PWS SA v1.10,2013-03-26 12:00:00,
2013-03-26 08:05:00,37.6,28.6,29.60,North,0,0.0,6.0,70,-99.99,,,-99.99,PWS SA v1.10,2013-03-26 12:05:00,
2013-03-26 08:10:00,37.6,28.5,29.60,North,9,1.7,6.0,69,-99.99,,,-99.99,PWS SA v1.10,2013-03-26 12:10:00,
2013-03-26 08:15:00,37.6,29.1,29.60,North,0,0.0,6.0,71,-99.99,,,-99.99,PWS SA v1.10,2013-03-26 12:15:00,
2013-03-26 08:20:00,37.9,29.2,29.60,NW,312,1.7,1.7,70,-99.99,,,-99.99,PWS SA v1.10,2013-03-26 12:20:00,
2013-03-26 08:30:00,38.4,29.2,29.60,North,0,0.0,5.0,69,-99.99,,,-99.99,PWS SA v1.10,2013-03-26 12:30:00,
2013-03-26 08:35:00,38.8,29.2,29.61,North,0,0.0,5.0,69,-99.99,,,-99.99,PWS SA v1.10,2013-03-26 12:35:00,
2013-03-26 08:40:00,38.6,28.7,29.60,NNE,16,5.1,5.1,67,-99.99,,,-99.99,PWS SA v1.10,2013-03-26 12:40:00,
2013-03-26 08:50:00,38.8,28.3,29.61,North,0,0.0,5.0,65,-99.99,,,-99.99,PWS SA v1.10,2013-03-26 12:50:00,
2013-03-26 08:55:00,39.1,28.7,29.61,North,0,0.0,3.0,66,-99.99,,,-99.99,PWS SA v1.10,2013-03-26 12:55:00,
2013-03-26 09:00:00,39.3,28.2,29.61,North,0,0.0,3.0,64,-99.99,,,-99.99,PWS SA v1.10,2013-03-26 13:00:00,
2013-03-26 09:05:00,39.7,28.9,29.61,North,0,0.0,3.0,65,-99.99,,,-99.99,PWS SA v1.10,2013-03-26 13:05:00,
2013-03-26 09:10:00,39.3,27.2,29.61,NW,315,1.7,5.0,62,-99.99,,,-99.99,PWS SA v1.10,2013-03-26 13:10:00,
2013-03-26 09:15:00,39.3,27.6,29.61,North,7,1.7,5.0,63,-99.99,,,-99.99,PWS SA v1.10,2013-03-26 13:15:00,
2013-03-26 09:20:00,39.2,26.7,29.62,NE,43,1.7,5.0,61,-99.99,,,-99.99,PWS SA v1.10,2013-03-26 13:20:00,
2013-03-26 09:25:00,39.6,26.8,29.61,North,6,1.7,5.0,61,-99.99,,,-99.99,PWS SA v1.10,2013-03-26 13:25:00,
2013-03-26 09:30:00,39.7,26.4,29.62,NW,326,3.4,5.0,60,-99.99,,,-99.99,PWS SA v1.10,2013-03-26 13:30:00,
2013-03-26 09:35:00,39.7,25.4,29.62,NW,317,3.4,6.0,57,-99.99,,,-99.99,PWS SA v1.10,2013-03-26 13:35:00,
2013-03-26 09:40:00,39.9,26.2,29.62,North,0,0.0,6.0,59,-99.99,,,-99.99,PWS SA v1.10,2013-03-26 13:40:00,
2013-03-26 09:45:00,40.2,25.8,29.62,NW,324,3.4,6.0,57,-99.99,,,-99.99,PWS SA v1.10,2013-03-26 13:45:00,
2013-03-26 09:50:00,40.2,25.9,29.62,NE,45,3.4,3.4,57,-99.99,,,-99.99,PWS SA v1.10,2013-03-26 13:50:00,
2013-03-26 09:55:00,40.4,26.2,29.62,North,0,0.0,3.0,57,-99.99,,,-99.99,PWS SA v1.10,2013-03-26 13:55:00,
2013-03-26 10:05:00,40.8,25.8,29.62,NE,37,6.8,6.8,56,-99.99,,,-99.99,PWS SA v1.10,2013-03-26 14:05:00,
2013-03-26 10:10:00,40.9,27.3,29.62,East,97,1.7,6.0,59,-99.99,,,-99.99,PWS SA v1.10,2013-03-26 14:10:00,
2013-03-26 10:15:00,40.5,27.0,29.62,WNW,303,3.4,6.0,59,-99.99,,,-99.99,PWS SA v1.10,2013-03-26 14:15:00,
2013-03-26 10:20:00,41.0,27.3,29.62,NW,306,1.7,5.0,59,-99.99,,,-99.99,PWS SA v1.10,2013-03-26 14:20:00,
2013-03-26 10:25:00,41.2,26.9,29.62,NNE,27,5.1,5.1,58,-99.99,,,-99.99,PWS SA v1.10,2013-03-26 14:25:00,
2013-03-26 10:30:00,40.8,26.0,29.62,North,0,0.0,6.0,55,-99.99,,,-99.99,PWS SA v1.10,2013-03-26 14:30:00,
2013-03-26 10:35:00,41.3,27.4,29.62,West,279,5.1,6.0,58,-99.99,,,-99.99,PWS SA v1.10,2013-03-26 14:35:00,
2013-03-26 10:40:00,41.0,27.4,29.62,WSW,256,6.8,6.8,59,-99.99,,,-99.99,PWS SA v1.10,2013-03-26 14:40:00,
2013-03-26 10:45:00,41.4,26.6,29.62,North,0,0.0,6.0,56,-99.99,,,-99.99,PWS SA v1.10,2013-03-26 14:45:00,
2013-03-26 10:50:00,41.1,24.6,29.62,North,0,0.0,6.0,52,-99.99,,,-99.99,PWS SA v1.10,2013-03-26 14:50:00,
2013-03-26 10:55:00,41.9,26.7,29.62,East,84,1.7,5.0,56,-99.99,,,-99.99,PWS SA v1.10,2013-03-26 14:55:00,
2013-03-26 11:00:00,42.8,26.6,29.62,NNE,13,1.7,5.0,54,-99.99,,,-99.99,PWS SA v1.10,2013-03-26 15:00:00,
2013-03-26 11:05:00,42.1,26.4,29.62,West,279,3.4,5.0,54,-99.99,,,-99.99,PWS SA v1.10,2013-03-26 15:05:00,
2013-03-26 11:10:00,41.6,27.7,29.63,North,0,0.0,6.0,58,-99.99,,,-99.99,PWS SA v1.10,2013-03-26 15:10:00,
2013-03-26 11:15:00,42.6,28.8,29.63,NNW,335,1.7,6.0,59,-99.99,,,-99.99,PWS SA v1.10,2013-03-26 15:15:00,
2013-03-26 11:20:00,42.4,28.9,29.63,West,277,3.4,6.0,60,-99.99,,,-99.99,PWS SA v1.10,2013-03-26 15:20:00,
2013-03-26 11:30:00,42.9,26.3,29.63,NNE,29,8.5,8.5,52,-99.99,,,-99.99,PWS SA v1.10,2013-03-26 15:30:00,
2013-03-26 11:35:00,43.6,27.7,29.63,ENE,78,1.7,8.0,54,-99.99,,,-99.99,PWS SA v1.10,2013-03-26 15:35:00,
2013-03-26 11:40:00,42.9,27.5,29.63,WSW,256,1.7,8.0,55,-99.99,,,-99.99,PWS SA v1.10,2013-03-26 15:40:00,
2013-03-26 11:45:00,42.9,27.2,29.62,North,0,0.0,5.0,55,-99.99,,,-99.99,PWS SA v1.10,2013-03-26 15:45:00,
2013-03-26 11:50:00,44.3,27.4,29.63,North,0,0.0,5.0,53,-99.99,,,-99.99,PWS SA v1.10,2013-03-26 15:50:00,
2013-03-26 11:55:00,45.6,28.1,29.62,North,0,0.0,5.0,51,-99.99,,,-99.99,PWS SA v1.10,2013-03-26 15:55:00,
2013-03-26 12:05:00,44.4,25.8,29.63,North,0,0.0,8.0,48,-99.99,,,-99.99,PWS SA v1.10,2013-03-26 16:05:00,
2013-03-26 12:10:00,44.2,27.4,29.62,NW,325,3.4,8.0,52,-99.99,,,-99.99,PWS SA v1.10,2013-03-26 16:10:00,
2013-03-26 12:20:00,43.8,26.0,29.63,North,0,0.0,5.0,50,-99.99,,,-99.99,PWS SA v1.10,2013-03-26 16:20:00,
2013-03-26 12:25:00,43.8,26.7,29.64,NNE,32,3.4,5.0,51,-99.99,,,-99.99,PWS SA v1.10,2013-03-26 16:25:00,
2013-03-26 12:30:00,44.2,26.9,29.63,NNW,335,1.7,5.0,51,-99.99,,,-99.99,PWS SA v1.10,2013-03-26 16:30:00,
2013-03-26 12:35:00,44.2,27.7,29.63,SW,217,3.4,5.0,53,-99.99,,,-99.99,PWS SA v1.10,2013-03-26 16:35:00,
2013-03-26 12:40:00,44.4,26.0,29.63,North,355,3.4,5.0,49,-99.99,,,-99.99,PWS SA v1.10,2013-03-26 16:40:00,
2013-03-26 12:45:00,44.5,27.6,29.63,WNW,282,1.7,6.0,52,-99.99,,,-99.99,PWS SA v1.10,2013-03-26 16:45:00,
2013-03-26 12:50:00,44.7,27.0,29.64,ENE,65,3.4,6.0,50,-99.99,,,-99.99,PWS SA v1.10,2013-03-26 16:50:00,
2013-03-26 12:55:00,44.9,26.7,29.63,NW,324,1.7,6.0,50,-99.99,,,-99.99,PWS SA v1.10,2013-03-26 16:55:00,
2013-03-26 13:00:00,45.2,27.5,29.63,WNW,294,3.4,5.0,50,-99.99,,,-99.99,PWS SA v1.10,2013-03-26 17:00:00,
2013-03-26 13:05:00,44.8,25.5,29.63,North,5,5.1,6.0,47,-99.99,,,-99.99,PWS SA v1.10,2013-03-26 17:05:00,
2013-03-26 13:10:00,44.9,25.9,29.63,North,355,1.7,6.0,47,-99.99,,,-99.99,PWS SA v1.10,2013-03-26 17:10:00,
2013-03-26 13:15:00,44.9,27.0,29.62,North,0,0.0,6.0,50,-99.99,,,-99.99,PWS SA v1.10,2013-03-26 17:15:00,
2013-03-26 13:20:00,44.8,27.2,29.63,NE,50,1.7,5.0,51,-99.99,,,-99.99,PWS SA v1.10,2013-03-26 17:20:00,
2013-03-26 13:25:00,44.9,27.0,29.63,NW,325,5.1,5.1,50,-99.99,,,-99.99,PWS SA v1.10,2013-03-26 17:25:00,
2013-03-26 13:30:00,44.7,27.9,29.63,NNW,328,6.8,6.8,52,-99.99,,,-99.99,PWS SA v1.10,2013-03-26 17:30:00,
2013-03-26 13:35:00,44.9,27.0,29.63,North,0,0.0,6.0,50,-99.99,,,-99.99,PWS SA v1.10,2013-03-26 17:35:00,
2013-03-26 13:40:00,47.4,28.8,29.63,NNW,337,1.7,6.0,50,-99.99,,,-99.99,PWS SA v1.10,2013-03-26 17:40:00,
2013-03-26 13:45:00,47.9,29.7,29.63,NW,309,1.7,8.0,50,-99.99,,,-99.99,PWS SA v1.10,2013-03-26 17:45:00,
2013-03-26 13:50:00,48.6,28.9,29.63,NNW,329,5.1,8.0,47,-99.99,,,-99.99,PWS SA v1.10,2013-03-26 17:50:00,
2013-03-26 13:55:00,49.5,28.0,29.63,NNE,14,3.4,8.0,44,-99.99,,,-99.99,PWS SA v1.10,2013-03-26 17:55:00,
2013-03-26 14:00:00,50.3,28.6,29.63,NNE,15,1.7,6.0,44,-99.99,,,-99.99,PWS SA v1.10,2013-03-26 18:00:00,
2013-03-26 14:05:00,47.9,25.7,29.63,North,364,1.7,6.0,41,-99.99,,,-99.99,PWS SA v1.10,2013-03-26 18:05:00,
2013-03-26 14:10:00,48.0,27.4,29.63,WNW,284,1.7,6.0,45,-99.99,,,-99.99,PWS SA v1.10,2013-03-26 18:10:00,
2013-03-26 14:15:00,48.2,27.4,29.62,NNW,338,1.7,5.0,45,-99.99,,,-99.99,PWS SA v1.10,2013-03-26 18:15:00,
2013-03-26 14:20:00,48.4,28.8,29.63,SW,225,5.1,8.0,47,-99.99,,,-99.99,PWS SA v1.10,2013-03-26 18:20:00,
2013-03-26 14:25:00,49.4,29.1,29.63,WNW,290,5.1,8.0,46,-99.99,,,-99.99,PWS SA v1.10,2013-03-26 18:25:00,
2013-03-26 14:30:00,48.4,28.2,29.63,North,0,0.0,8.0,45,-99.99,,,-99.99,PWS SA v1.10,2013-03-26 18:30:00,
2013-03-26 14:35:00,48.0,27.5,29.62,NNW,332,6.8,8.0,45,-99.99,,,-99.99,PWS SA v1.10,2013-03-26 18:35:00,
2013-03-26 14:45:00,48.5,28.6,29.62,WSW,247,3.4,8.0,48,-99.99,,,-99.99,PWS SA v1.10,2013-03-26 18:45:00,
2013-03-26 14:50:00,49.2,27.5,29.62,West,271,1.7,8.0,44,-99.99,,,-99.99,PWS SA v1.10,2013-03-26 18:50:00,
2013-03-26 14:55:00,50.0,29.1,29.62,WSW,250,8.5,8.5,45,-99.99,,,-99.99,PWS SA v1.10,2013-03-26 18:55:00,
2013-03-26 15:00:00,50.5,25.7,29.62,NE,35,8.5,8.5,38,-99.99,,,-99.99,PWS SA v1.10,2013-03-26 19:00:00,
2013-03-26 15:05:00,51.9,27.3,29.62,North,0,0.0,8.0,39,-99.99,,,-99.99,PWS SA v1.10,2013-03-26 19:05:00,
2013-03-26 15:10:00,51.9,26.8,29.62,NNE,13,3.4,10.0,38,-99.99,,,-99.99,PWS SA v1.10,2013-03-26 19:10:00,
2013-03-26 15:15:00,51.5,26.2,29.62,North,0,0.0,10.0,37,-99.99,,,-99.99,PWS SA v1.10,2013-03-26 19:15:00,
2013-03-26 15:20:00,51.1,25.6,29.62,NW,322,10.2,10.2,36,-99.99,,,-99.99,PWS SA v1.10,2013-03-26 19:20:00,
2013-03-26 15:25:00,52.8,28.9,29.61,West,274,5.1,10.0,40,-99.99,,,-99.99,PWS SA v1.10,2013-03-26 19:25:00,
2013-03-26 15:30:00,50.7,25.0,29.61,NE,37,3.4,10.0,36,-99.99,,,-99.99,PWS SA v1.10,2013-03-26 19:30:00,
2013-03-26 15:35:00,49.2,25.8,29.62,NW,309,1.7,6.0,40,-99.99,,,-99.99,PWS SA v1.10,2013-03-26 19:35:00,
2013-03-26 15:40:00,50.7,25.9,29.62,NW,305,5.1,6.0,38,-99.99,,,-99.99,PWS SA v1.10,2013-03-26 19:40:00,
2013-03-26 15:45:00,51.8,25.5,29.62,NNE,24,5.1,6.0,36,-99.99,,,-99.99,PWS SA v1.10,2013-03-26 19:45:00,
2013-03-26 15:50:00,50.1,25.7,29.62,North,0,0.0,6.0,38,-99.99,,,-99.99,PWS SA v1.10,2013-03-26 19:50:00,
2013-03-26 16:00:00,51.8,26.4,29.62,NW,325,3.4,3.4,38,-99.99,,,-99.99,PWS SA v1.10,2013-03-26 20:00:00,
2013-03-26 16:05:00,53.1,27.9,29.62,NNW,327,1.7,6.0,39,-99.99,,,-99.99,PWS SA v1.10,2013-03-26 20:05:00,
2013-03-26 16:10:00,51.7,25.3,29.62,WSW,253,5.1,6.0,36,-99.99,,,-99.99,PWS SA v1.10,2013-03-26 20:10:00,
2013-03-26 16:15:00,51.1,25.8,29.62,NNE,16,1.7,6.0,37,-99.99,,,-99.99,PWS SA v1.10,2013-03-26 20:15:00,
2013-03-26 16:20:00,50.1,24.1,29.62,North,0,0.0,5.0,36,-99.99,,,-99.99,PWS SA v1.10,2013-03-26 20:20:00,
2013-03-26 16:25:00,50.6,25.9,29.62,North,0,0.0,5.0,39,-99.99,,,-99.99,PWS SA v1.10,2013-03-26 20:25:00,
2013-03-26 16:30:00,51.9,27.0,29.62,NW,326,5.1,5.1,39,-99.99,,,-99.99,PWS SA v1.10,2013-03-26 20:30:00,
2013-03-26 16:35:00,51.1,25.9,29.62,West,274,3.4,6.0,38,-99.99,,,-99.99,PWS SA v1.10,2013-03-26 20:35:00,
2013-03-26 16:45:00,49.8,23.4,29.63,NW,316,3.4,8.0,35,-99.99,,,-99.99,PWS SA v1.10,2013-03-26 20:45:00,
2013-03-26 16:50:00,49.6,26.3,29.63,West,280,3.4,8.0,41,-99.99,,,-99.99,PWS SA v1.10,2013-03-26 20:50:00,
2013-03-26 16:55:00,50.5,25.4,29.62,West,268,3.4,8.0,38,-99.99,,,-99.99,PWS SA v1.10,2013-03-26 20:55:00,
2013-03-26 17:00:00,49.9,23.2,29.63,NNW,346,6.8,8.0,35,-99.99,,,-99.99,PWS SA v1.10,2013-03-26 21:00:00,
2013-03-26 17:05:00,49.7,22.3,29.63,NNE,23,1.7,8.0,34,-99.99,,,-99.99,PWS SA v1.10,2013-03-26 21:05:00,
2013-03-26 17:10:00,50.1,21.9,29.63,North,0,0.0,6.0,33,-99.99,,,-99.99,PWS SA v1.10,2013-03-26 21:10:00,
2013-03-26 17:15:00,52.1,24.0,29.63,NNW,340,3.4,6.0,34,-99.99,,,-99.99,PWS SA v1.10,2013-03-26 21:15:00,
2013-03-26 17:20:00,51.9,25.5,29.63,North,0,0.0,6.0,36,-99.99,,,-99.99,PWS SA v1.10,2013-03-26 21:20:00,
2013-03-26 17:25:00,50.0,23.5,29.64,WSW,242,3.4,3.4,35,-99.99,,,-99.99,PWS SA v1.10,2013-03-26 21:25:00,
2013-03-26 17:35:00,48.0,22.9,29.64,North,0,0.0,6.0,37,-99.99,,,-99.99,PWS SA v1.10,2013-03-26 21:35:00,
2013-03-26 17:45:00,48.7,22.8,29.64,WSW,257,1.7,1.7,37,-99.99,,,-99.99,PWS SA v1.10,2013-03-26 21:45:00,
2013-03-26 17:50:00,48.8,22.6,29.65,North,0,0.0,1.0,36,-99.99,,,-99.99,PWS SA v1.10,2013-03-26 21:50:00,
2013-03-26 17:55:00,48.1,22.3,29.64,NW,312,5.1,5.1,37,-99.99,,,-99.99,PWS SA v1.10,2013-03-26 21:55:00,
2013-03-26 18:00:00,47.8,24.2,29.65,North,0,0.0,5.0,40,-99.99,,,-99.99,PWS SA v1.10,2013-03-26 22:00:00,
2013-03-26 18:05:00,47.4,22.3,29.65,North,0,0.0,5.0,37,-99.99,,,-99.99,PWS SA v1.10,2013-03-26 22:05:00,
2013-03-26 18:10:00,47.1,22.5,29.65,NNW,327,3.4,5.0,38,-99.99,,,-99.99,PWS SA v1.10,2013-03-26 22:10:00,
2013-03-26 18:15:00,46.7,21.5,29.65,NNW,332,3.4,5.0,37,-99.99,,,-99.99,PWS SA v1.10,2013-03-26 22:15:00,
2013-03-26 18:20:00,46.2,22.9,29.65,NW,316,1.7,3.0,40,-99.99,,,-99.99,PWS SA v1.10,2013-03-26 22:20:00,
2013-03-26 18:25:00,46.3,21.6,29.65,North,0,0.0,3.0,38,-99.99,,,-99.99,PWS SA v1.10,2013-03-26 22:25:00,
2013-03-26 18:30:00,45.6,22.2,29.65,North,0,0.0,3.0,40,-99.99,,,-99.99,PWS SA v1.10,2013-03-26 22:30:00,
2013-03-26 18:35:00,45.3,23.7,29.66,North,0,0.0,3.0,43,-99.99,,,-99.99,PWS SA v1.10,2013-03-26 22:35:00,
2013-03-26 18:40:00,45.3,22.9,29.66,North,0,0.0,3.0,42,-99.99,,,-99.99,PWS SA v1.10,2013-03-26 22:40:00,
2013-03-26 18:45:00,44.9,23.8,29.66,WNW,297,1.7,3.0,44,-99.99,,,-99.99,PWS SA v1.10,2013-03-26 22:45:00,
2013-03-26 18:50:00,44.8,22.6,29.66,North,0,0.0,3.0,42,-99.99,,,-99.99,PWS SA v1.10,2013-03-26 22:50:00,
2013-03-26 18:55:00,44.5,23.9,29.66,North,0,0.0,1.0,44,-99.99,,,-99.99,PWS SA v1.10,2013-03-26 22:55:00,
2013-03-26 19:00:00,43.8,24.9,29.67,SW,232,3.4,3.4,47,-99.99,,,-99.99,PWS SA v1.10,2013-03-26 23:00:00,
2013-03-26 19:05:00,43.5,24.8,29.67,North,0,0.0,3.0,48,-99.99,,,-99.99,PWS SA v1.10,2013-03-26 23:05:00,
2013-03-26 19:10:00,43.3,25.3,29.67,North,0,0.0,3.0,49,-99.99,,,-99.99,PWS SA v1.10,2013-03-26 23:10:00,
2013-03-26 19:15:00,43.1,23.9,29.67,North,0,0.0,0.0,47,-99.99,,,-99.99,PWS SA v1.10,2013-03-26 23:15:00,
2013-03-26 19:20:00,42.7,23.7,29.67,North,0,0.0,0.0,47,-99.99,,,-99.99,PWS SA v1.10,2013-03-26 23:20:00,
2013-03-26 19:25:00,42.3,24.9,29.67,North,0,0.0,0.0,50,-99.99,,,-99.99,PWS SA v1.10,2013-03-26 23:25:00,
2013-03-26 19:30:00,42.1,24.5,29.67,North,0,0.0,0.0,50,-99.99,,,-99.99,PWS SA v1.10,2013-03-26 23:30:00,
2013-03-26 19:35:00,41.7,24.3,29.68,North,0,0.0,1.0,50,-99.99,,,-99.99,PWS SA v1.10,2013-03-26 23:35:00,
2013-03-26 19:40:00,42.0,22.1,29.68,North,0,0.0,1.0,46,-99.99,,,-99.99,PWS SA v1.10,2013-03-26 23:40:00,
2013-03-26 19:45:00,41.2,25.9,29.68,North,0,0.0,1.0,55,-99.99,,,-99.99,PWS SA v1.10,2013-03-26 23:45:00,
2013-03-26 19:50:00,40.7,27.9,29.68,North,0,0.0,0.0,60,-99.99,,,-99.99,PWS SA v1.10,2013-03-26 23:50:00,
2013-03-26 19:55:00,40.3,25.8,29.68,North,0,0.0,0.0,56,-99.99,,,-99.99,PWS SA v1.10,2013-03-26 23:55:00,
2013-03-26 20:00:00,39.9,25.3,29.69,North,0,0.0,0.0,56,-99.99,,,-99.99,PWS SA v1.10,2013-03-27 00:00:00,
2013-03-26 20:05:00,39.5,26.8,29.69,West,277,1.7,1.7,61,-99.99,,,-99.99,PWS SA v1.10,2013-03-27 00:05:00,
2013-03-26 20:10:00,39.3,26.3,29.69,North,0,0.0,1.0,60,-99.99,,,-99.99,PWS SA v1.10,2013-03-27 00:10:00,
2013-03-26 20:15:00,39.3,25.6,29.69,North,0,0.0,1.0,59,-99.99,,,-99.99,PWS SA v1.10,2013-03-27 00:15:00,
2013-03-26 20:20:00,39.8,24.6,29.69,NNW,333,1.7,3.0,55,-99.99,,,-99.99,PWS SA v1.10,2013-03-27 00:20:00,
2013-03-26 20:25:00,40.5,24.7,29.69,NW,320,1.7,3.0,54,-99.99,,,-99.99,PWS SA v1.10,2013-03-27 00:25:00,
2013-03-26 20:30:00,40.7,24.6,29.69,North,0,0.0,3.0,53,-99.99,,,-99.99,PWS SA v1.10,2013-03-27 00:30:00,
2013-03-26 20:35:00,40.6,24.1,29.69,North,0,0.0,3.0,53,-99.99,,,-99.99,PWS SA v1.10,2013-03-27 00:35:00,
2013-03-26 20:40:00,40.7,24.6,29.69,North,0,0.0,3.0,53,-99.99,,,-99.99,PWS SA v1.10,2013-03-27 00:40:00,
2013-03-26 20:45:00,40.6,24.6,29.69,West,275,3.4,3.4,53,-99.99,,,-99.99,PWS SA v1.10,2013-03-27 00:45:00,
2013-03-26 20:50:00,40.3,23.6,29.70,WNW,282,3.4,3.4,52,-99.99,,,-99.99,PWS SA v1.10,2013-03-27 00:50:00,
2013-03-26 20:55:00,40.3,24.1,29.70,North,0,0.0,3.0,53,-99.99,,,-99.99,PWS SA v1.10,2013-03-27 00:55:00,
2013-03-26 21:00:00,40.3,24.2,29.70,NW,320,3.4,3.4,53,-99.99,,,-99.99,PWS SA v1.10,2013-03-27 01:00:00,
2013-03-26 21:05:00,40.3,24.9,29.70,North,0,0.0,3.0,55,-99.99,,,-99.99,PWS SA v1.10,2013-03-27 01:05:00,
2013-03-26 21:10:00,40.2,23.7,29.71,NW,319,1.7,3.0,52,-99.99,,,-99.99,PWS SA v1.10,2013-03-27 01:10:00,
2013-03-26 21:15:00,40.1,24.4,29.71,West,280,1.7,1.7,54,-99.99,,,-99.99,PWS SA v1.10,2013-03-27 01:15:00,
2013-03-26 21:20:00,39.8,24.8,29.70,North,0,0.0,3.0,56,-99.99,,,-99.99,PWS SA v1.10,2013-03-27 01:20:00,
2013-03-26 21:25:00,39.9,24.5,29.71,WNW,299,3.4,3.4,55,-99.99,,,-99.99,PWS SA v1.10,2013-03-27 01:25:00,
2013-03-26 21:30:00,39.7,24.2,29.71,NNW,331,5.1,5.1,55,-99.99,,,-99.99,PWS SA v1.10,2013-03-27 01:30:00,
2013-03-26 21:35:00,39.9,23.2,29.72,NNW,337,3.4,6.0,52,-99.99,,,-99.99,PWS SA v1.10,2013-03-27 01:35:00,
2013-03-26 21:45:00,39.7,25.5,29.72,West,264,1.7,6.0,57,-99.99,,,-99.99,PWS SA v1.10,2013-03-27 01:45:00,
2013-03-26 21:50:00,39.8,23.1,29.71,NW,325,1.7,5.0,52,-99.99,,,-99.99,PWS SA v1.10,2013-03-27 01:50:00,
2013-03-26 21:55:00,39.5,23.5,29.72,North,0,0.0,5.0,53,-99.99,,,-99.99,PWS SA v1.10,2013-03-27 01:55:00,
2013-03-26 22:00:00,39.0,24.4,29.71,North,0,0.0,5.0,56,-99.99,,,-99.99,PWS SA v1.10,2013-03-27 02:00:00,
2013-03-26 22:05:00,39.1,24.4,29.71,North,0,0.0,5.0,57,-99.99,,,-99.99,PWS SA v1.10,2013-03-27 02:05:00,
2013-03-26 22:10:00,38.8,24.7,29.72,North,0,0.0,3.0,58,-99.99,,,-99.99,PWS SA v1.10,2013-03-27 02:10:00,
2013-03-26 22:15:00,38.8,23.6,29.72,North,0,0.0,3.0,55,-99.99,,,-99.99,PWS SA v1.10,2013-03-27 02:15:00,
2013-03-26 22:20:00,38.5,23.9,29.72,North,0,0.0,0.0,56,-99.99,,,-99.99,PWS SA v1.10,2013-03-27 02:20:00,
2013-03-26 22:25:00,38.5,24.4,29.72,North,0,0.0,1.0,58,-99.99,,,-99.99,PWS SA v1.10,2013-03-27 02:25:00,
2013-03-26 22:35:00,38.5,23.8,29.72,North,0,0.0,1.0,56,-99.99,,,-99.99,PWS SA v1.10,2013-03-27 02:35:00,
2013-03-26 22:40:00,38.5,24.9,29.72,West,269,3.4,3.4,59,-99.99,,,-99.99,PWS SA v1.10,2013-03-27 02:40:00,
2013-03-26 22:45:00,38.3,23.3,29.72,North,0,0.0,3.0,55,-99.99,,,-99.99,PWS SA v1.10,2013-03-27 02:45:00,
2013-03-26 22:50:00,38.4,23.2,29.72,North,0,0.0,3.0,55,-99.99,,,-99.99,PWS SA v1.10,2013-03-27 02:50:00,
2013-03-26 22:55:00,38.3,22.8,29.72,North,0,0.0,3.0,54,-99.99,,,-99.99,PWS SA v1.10,2013-03-27 02:55:00,
2013-03-26 23:00:00,37.8,23.1,29.72,NW,321,3.4,3.4,55,-99.99,,,-99.99,PWS SA v1.10,2013-03-27 03:00:00,
2013-03-26 23:05:00,37.7,23.5,29.72,North,0,0.0,3.0,56,-99.99,,,-99.99,PWS SA v1.10,2013-03-27 03:05:00,
2013-03-26 23:10:00,37.6,23.1,29.73,NNW,327,1.7,3.0,56,-99.99,,,-99.99,PWS SA v1.10,2013-03-27 03:10:00,
2013-03-26 23:15:00,37.3,23.2,29.73,North,0,0.0,3.0,57,-99.99,,,-99.99,PWS SA v1.10,2013-03-27 03:15:00,
2013-03-26 23:20:00,37.1,23.6,29.73,North,0,0.0,1.0,59,-99.99,,,-99.99,PWS SA v1.10,2013-03-27 03:20:00,
2013-03-26 23:30:00,37.5,21.9,29.73,North,0,0.0,1.0,54,-99.99,,,-99.99,PWS SA v1.10,2013-03-27 03:30:00,
2013-03-26 23:35:00,37.2,22.9,29.73,North,0,0.0,1.0,56,-99.99,,,-99.99,PWS SA v1.10,2013-03-27 03:35:00,
2013-03-26 23:40:00,37.0,23.2,29.73,North,0,0.0,1.0,58,-99.99,,,-99.99,PWS SA v1.10,2013-03-27 03:40:00,
2013-03-26 23:45:00,36.5,23.1,29.73,North,0,0.0,0.0,58,-99.99,,,-99.99,PWS SA v1.10,2013-03-27 03:45:00,
2013-03-26 23:50:00,36.5,24.2,29.73,North,0,0.0,0.0,61,-99.99,,,-99.99,PWS SA v1.10,2013-03-27 03:50:00,
2013-03-26 23:55:00,36.5,24.0,29.73,NW,323,3.4,3.4,61,-99.99,,,-99.99,PWS SA v1.10,2013-03-27 03:55:00,